Lapse_Rate
5.4 5.3 5.4 5.5 5.7 5.5 5.6 5.4 5.3 5.2 5.3 5.2 5.0 5.0 5.2 5.1 5.1 5.2 5.1 5.0 4.8 4.7 4.8 4.5 4.8 4.7 4.7 4.8 4.9 5.0 5.1 5.0 5.2 5.1 5.1 5.0 5.1 5.0 5.1 5.5 5.6 5.7 5.6
5.4 5.4 5.5 5.6 5.5 5.5 5.6 5.6 5.3 5.2 5.2 5.1 5.1 5.0 5.1 5.2 5.1 5.0 5.0 5.0 4.8 4.7 4.8 4.6 4.7 4.7 4.8 4.9 5.0 5.1 5.3 5.2 5.0 5.1 4.9 4.9 5.0 5.1 5.1 5.3 5.4 5.7 5.6
5.5 5.6 5.6 5.5 5.6 5.7 5.5 5.5 5.5 5.4 5.3 5.2 5.1 4.9 5.0 5.1 5.1 5.0 5.0 5.3 4.9 4.8 4.8 4.7 4.9 5.0 5.0 5.0 5.0 5.1 5.2 4.9 5.1 5.2 5.0 4.8 5.0 5.3 5.2 5.3 5.4 5.6 5.6
5.7 5.6 5.8 5.8 5.8 5.8 5.7 5.7 5.8 5.5 5.4 5.2 5.1 5.2 5.1 4.8 5.1 5.0 5.1 4.9 4.9 4.7 4.8 4.9 4.7 5.0 5.0 5.0 4.9 5.0 5.1 5.0 5.2 5.0 5.1 4.9 5.0 5.3 5.4 5.4 5.5 5.3 5.4
5.7 5.8 5.9 5.8 5.9 5.8 5.8 5.8 5.7 5.4 5.3 5.1 5.2 5.0 4.9 4.8 5.2 4.9 4.9 4.7 4.9 4.7 4.7 4.9 4.7 4.9 4.8 4.9 4.9 5.1 5.0 5.0 4.8 5.1 4.7 4.9 5.0 5.1 5.1 5.4 5.5 5.5 5.5
5.9 5.9 6.0 5.9 5.9 5.9 5.9 5.8 5.6 5.1 5.0 5.1 5.2 5.0 5.0 4.9 5.0 5.0 4.7 4.8 4.8 4.7 4.8 4.8 4.6 4.9 4.9 5.0 4.9 5.0 5.0 4.7 4.3 4.1 4.6 4.9 5.1 5.2 5.2 5.3 5.5 5.6 5.6
5.8 5.9 6.0 6.1 6.1 6.1 5.8 5.7 5.5 5.2 5.1 5.1 5.2 5.0 5.0 5.1 5.1 5.1 4.8 4.8 4.9 4.8 4.9 4.8 4.7 4.9 4.9 4.9 4.8 5.0 5.0 5.1 4.8 4.5 4.8 4.8 5.0 5.2 5.2 5.2 5.4 5.5 5.5
5.8 6.1 6.0 6.2 6.2 6.0 5.9 5.8 5.5 5.2 4.8 4.6 4.5 5.2 5.0 5.0 5.1 4.9 4.8 4.9 5.0 4.8 4.9 4.9 4.8 4.8 4.8 4.9 4.9 5.0 4.9 5.2 4.8 4.8 4.9 5.0 5.0 5.0 5.2 5.3 5.3 5.4 5.3
5.9 5.6 6.0 6.2 6.2 6.1 6.1 6.1 5.7 5.2 5.3 4.8 4.8 4.9 4.5 4.9 4.8 4.6 4.8 5.0 5.1 5.0 5.0 5.0 5.0 4.8 5.0 4.9 4.7 5.0 5.3 5.3 5.2 5.2 4.9 5.1 5.1 5.1 5.2 5.3 5.4 5.2 5.2
5.1 5.7 5.6 6.2 6.2 6.0 6.0 6.2 6.1 5.8 5.4 5.1 4.7 4.8 5.0 4.7 4.9 5.1 4.9 5.1 5.0 5.2 5.2 5.0 5.0 5.0 4.9 4.8 4.7 5.1 5.4 5.1 4.9 5.1 5.2 5.0 5.3 5.3 5.3 5.3 5.4 5.3 5.4
5.1 5.4 5.7 5.8 6.0 5.9 6.2 6.2 6.2 6.0 6.2 5.1 5.1 4.9 4.6 4.7 4.9 5.0 4.8 5.0 5.2 5.1 5.2 5.1 5.0 4.9 4.9 4.7 4.6 4.9 4.7 4.6 4.9 4.5 4.9 5.0 5.0 5.2 5.4 5.4 5.3 5.3 5.2
5.0 5.0 5.5 5.7 5.8 5.7 5.9 6.0 6.0 5.5 5.6 5.6 5.0 4.5 4.6 4.8 4.8 4.9 5.0 4.9 5.1 5.2 5.0 5.1 5.1 5.1 4.9 4.7 4.5 4.8 4.5 4.8 4.4 5.1 5.0 4.8 4.7 5.0 5.2 5.3 5.4 5.3 5.3
5.0 5.1 5.0 5.1 5.2 5.9 5.6 5.9 6.2 6.0 6.3 5.9 5.2 4.9 5.1 5.2 5.1 5.1 5.1 5.2 5.1 5.1 5.2 5.4 5.3 5.1 5.0 5.2 4.8 4.6 4.4 4.3 4.2 5.1 4.6 4.6 4.6 4.6 4.9 5.2 5.2 5.2 5.2
5.1 4.9 5.2 5.2 5.1 5.2 5.7 5.6 5.8 6.3 5.9 6.2 6.2 5.5 5.5 5.5 5.3 5.3 5.5 5.2 5.4 5.2 5.3 5.2 5.6 5.2 5.2 5.0 5.1 4.7 4.6 4.3 4.8 4.9 4.8 5.0 4.4 5.0 4.9 5.0 5.1 5.2 5.3
5.2 5.1 5.1 5.7 5.8 5.6 5.5 5.5 6.3 6.0 5.9 6.2 6.3 6.4 6.3 6.0 6.1 6.2 6.3 6.0 5.6 5.3 5.4 5.1 5.2 5.1 5.1 5.2 5.1 5.1 4.9 4.6 4.8 4.9 5.0 4.9 4.5 5.1 4.8 4.9 5.1 5.3 5.3
5.5 5.4 5.6 5.8 5.8 5.8 5.8 5.8 6.0 6.2 6.2 5.9 6.1 6.0 6.1 6.3 6.3 5.8 5.6 5.7 5.6 5.5 5.2 5.0 5.1 5.3 5.4 5.2 5.1 5.1 4.8 4.5 4.8 4.6 4.8 4.9 4.7 4.9 4.8 4.8 5.1 5.3 5.3
5.1 5.6 5.8 6.0 6.3 6.1 5.8 5.8 6.1 6.2 6.2 5.9 6.1 5.9 5.9 5.9 5.8 5.4 5.5 5.5 5.5 5.6 4.9 4.9 5.2 5.2 5.1 5.1 5.4 4.8 4.9 5.1 4.9 4.8 5.0 5.4 4.8 5.3 5.3 5.1 5.3 5.5 5.6
5.3 5.9 6.1 6.2 6.0 6.2 6.0 5.7 5.9 6.3 6.4 6.2 6.2 6.2 6.0 5.8 5.8 5.7 5.6 5.3 5.4 5.2 5.1 5.0 5.2 4.8 5.0 5.1 5.2 5.2 5.3 4.9 5.1 5.1 5.2 4.9 5.2 5.5 5.5 5.2 5.6 5.7 5.6
5.7 5.9 5.4 5.7 6.2 5.9 5.8 6.0 5.9 5.7 6.1 6.3 6.1 6.1 5.9 5.9 5.7 5.5 5.6 5.6 5.2 5.5 5.4 5.4 5.2 5.1 5.2 5.4 5.3 5.2 5.1 5.1 5.2 5.1 4.7 4.8 5.1 5.1 5.0 5.4 5.5 5.7 5.3
6.1 5.9 6.0 5.6 5.5 6.0 6.0 5.9 6.1 6.0 6.0 6.0 6.1 6.1 6.2 5.9 5.8 5.8 5.7 5.5 5.6 5.1 4.8 5.2 5.2 5.3 5.2 5.2 5.3 5.3 5.2 5.1 5.1 5.2 4.9 5.1 5.2 5.1 5.3 5.5 5.5 5.6 5.3
5.8 5.9 5.9 6.0 5.9 5.7 6.1 5.7 5.8 5.7 6.1 6.0 6.0 5.9 5.8 5.9 5.8 5.8 5.9 5.8 5.8 5.7 5.5 5.4 5.3 5.3 5.4 5.5 5.4 5.5 5.3 5.0 5.4 4.9 5.2 5.4 5.3 4.9 5.0 5.3 5.3 5.5 5.1
6.0 6.1 6.0 6.0 6.0 5.9 5.9 5.9 5.5 5.6 5.4 5.5 5.8 5.8 5.7 5.7 5.7 5.7 5.7 5.7 5.6 5.5 5.6 5.4 5.4 5.4 5.5 5.3 5.4 5.6 5.4 5.1 5.1 5.4 5.3 5.3 5.0 5.0 4.9 5.1 5.0 5.0 5.1
5.9 6.1 6.2 6.0 6.0 6.0 6.0 5.8 6.0 6.0 5.6 5.3 5.2 5.4 5.6 5.6 5.5 5.6 5.7 5.6 5.8 5.6 5.6 5.6 5.6 5.6 5.6 5.7 5.5 5.6 5.4 5.3 5.3 5.0 4.7 4.9 4.9 5.0 5.5 5.3 4.9 4.7 5.5
6.1 6.2 6.3 6.1 6.1 5.9 5.8 5.9 5.8 6.0 5.6 5.4 5.3 5.6 5.6 5.6 5.7 5.8 5.8 5.7 5.6 5.4 5.7 5.8 5.9 5.6 5.8 5.7 5.6 5.8 5.3 5.4 5.3 5.3 5.4 5.1 5.3 5.1 4.8 5.0 5.5 5.0 5.0
6.5 6.3 6.6 6.4 6.1 6.0 5.8 6.1 6.1 6.0 5.8 5.8 5.6 5.8 5.7 5.8 5.7 5.9 5.9 6.0 6.0 6.1 6.2 6.2 6.1 6.0 6.1 5.9 5.8 5.9 5.6 5.6 5.3 5.4 5.3 5.1 5.0 5.3 4.9 4.8 5.1 5.4 5.5
6.8 6.5 6.7 6.7 6.3 6.1 6.3 6.2 6.2 6.2 6.1 6.1 6.0 6.3 6.5 6.3 6.3 6.1 6.2 6.4 6.4 6.3 6.3 6.2 6.3 6.2 6.1 6.0 5.8 5.5 5.5 5.4 5.2 5.2 5.2 5.0 5.1 4.8 4.8 4.5 5.3 5.0 4.8
Wind_Speed
13 14 14 13 15 13 12 10 8 10 14 20 23 26 27 27 27 23 20 15 13 14 13 10 13 14 15 17 16 17 16 16 17 17 17 17 15 14 11 8 4 14 13
15 16 14 14 13 12 12 7 5 7 15 21 24 27 29 27 25 21 19 18 15 13 13 15 17 16 17 15 14 14 14 14 15 17 20 18 15 14 14 17 11 12 12
16 18 17 14 14 14 16 15 6 10 17 23 26 28 28 26 21 19 17 17 14 13 16 17 18 17 16 14 12 11 12 10 11 13 19 17 14 14 13 15 13 12 12
18 21 17 14 14 18 18 18 13 15 22 24 27 29 26 21 21 20 17 14 13 14 17 17 18 18 16 13 11 9 8 8 7 9 5 17 15 14 13 13 12 11 13
20 21 17 15 16 20 21 23 23 24 22 26 27 28 22 16 17 15 14 14 15 16 16 18 17 17 16 12 7 4 2 1 4 8 4 17 15 13 13 12 13 10 10
20 20 17 17 17 20 24 24 28 26 23 24 28 26 22 14 5 11 11 15 19 16 18 19 18 17 15 12 4 3 4 6 10 20 20 18 15 13 15 15 13 13 13
20 20 18 18 17 20 22 27 28 28 26 25 26 23 19 17 12 12 13 17 18 17 18 17 16 14 13 10 4 3 7 9 12 13 19 17 13 13 13 14 13 11 11
20 20 19 19 18 19 22 24 27 29 28 29 26 22 20 15 13 12 17 17 17 17 15 15 13 11 8 6 2 5 8 10 8 16 18 16 14 13 12 12 11 12 10
21 17 20 20 19 19 19 20 22 24 24 28 28 22 18 14 11 10 13 14 15 14 13 12 10 7 5 3 1 3 6 11 14 16 18 15 13 13 11 11 10 11 11
16 16 17 20 20 18 18 18 18 19 19 21 23 23 20 15 11 9 10 12 11 11 10 8 6 4 3 3 4 3 5 11 11 13 14 17 15 12 11 10 10 9 9
15 14 16 16 17 18 14 16 16 16 17 17 17 15 19 12 13 11 9 10 10 10 9 6 5 5 5 8 10 8 7 7 8 7 11 21 19 14 12 11 9 10 9
18 17 15 17 15 17 15 14 18 11 12 16 21 19 14 13 14 15 13 10 11 10 8 8 9 9 10 12 10 12 11 11 7 13 12 18 19 17 14 13 12 11 11
10 12 9 8 18 11 11 11 15 22 15 13 17 22 18 11 11 12 10 10 11 10 10 10 11 12 12 7 13 10 16 9 12 8 14 18 15 18 18 15 14 13 13
10 12 14 9 10 4 11 9 12 9 13 10 9 8 7 5 9 7 9 12 10 9 7 12 11 5 2 9 9 6 9 2 8 11 15 19 17 18 21 20 17 16 15
13 11 11 9 7 5 5 4 5 4 6 14 11 8 10 4 3 2 9 9 7 7 6 5 5 7 6 8 8 9 8 4 5 8 16 24 25 26 23 23 22 19 17
13 9 13 10 4 7 4 3 1 4 9 10 9 7 5 4 7 4 2 3 3 2 1 5 5 2 1 7 5 9 6 10 2 11 16 18 25 23 22 21 22 23 21
15 13 11 11 9 6 5 2 3 4 10 6 7 13 6 9 6 3 2 3 4 9 7 9 5 2 3 4 5 4 5 12 7 9 10 12 17 21 15 16 21 24 23
12 12 13 11 11 10 9 5 1 5 6 6 5 11 11 12 6 3 2 4 6 2 5 3 2 3 4 5 4 5 6 9 10 13 9 4 15 18 18 13 21 25 25
11 8 8 12 12 9 6 4 3 1 3 2 5 9 13 13 9 7 4 5 2 6 3 4 3 3 4 5 6 6 4 6 5 9 6 12 11 19 14 26 29 25 27
13 9 8 5 9 11 7 4 3 3 4 8 6 5 9 9 8 6 7 2 6 4 7 6 4 3 4 2 6 8 7 6 7 5 7 11 9 9 12 18 19 21 17
12 12 10 7 8 7 4 4 6 6 5 5 5 11 10 12 7 9 4 2 6 5 5 2 1 4 3 3 2 6 8 9 3 8 5 5 4 5 9 11 17 13 18
12 13 10 9 9 6 5 4 3 4 3 5 7 8 5 6 6 7 3 5 1 3 3 3 3 2 2 4 4 4 4 3 4 12 6 3 3 4 5 11 12 17 16
14 13 12 8 12 8 5 2 3 4 2 2 5 4 5 7 4 5 6 4 3 2 4 3 3 4 2 3 7 3 3 3 3 3 10 2 4 2 5 8 8 13 18
16 14 14 12 10 9 6 5 6 4 3 1 4 3 6 9 7 6 4 5 3 3 4 3 3 2 3 4 4 2 1 4 3 4 2 2 5 6 5 4 5 9 12
15 16 15 14 10 8 9 6 5 5 2 3 4 5 1 5 5 7 7 5 4 3 0 1 4 3 2 4 4 2 3 2 4 3 4 3 3 3 6 2 3 9 10
12 14 15 15 12 11 9 9 7 6 4 1 1 2 3 4 6 6 4 2 1 2 3 2 4 4 5 3 3 3 1 1 2 2 2 3 4 4 3 4 2 6 10
Wind_Direction
87 80 71 84 84 72 71 69 81 110 130 134 136 127 124 122 124 130 129 137 134 141 121 119 127 108 101 95 95 99 104 107 103 99 92 84 79 73 66 84 116 101 106
95 84 81 93 84 66 59 61 91 120 138 141 136 131 128 125 125 123 123 119 118 123 107 104 115 107 103 104 108 110 111 120 119 117 109 92 84 78 71 69 120 103 102
105 96 90 98 80 61 51 41 106 132 145 139 137 130 126 124 121 118 106 98 101 114 104 109 110 107 109 108 109 109 120 121 125 139 124 92 87 82 80 82 94 104 101
108 95 92 94 79 63 53 48 92 127 135 136 135 127 123 127 119 107 94 90 90 106 108 112 111 111 107 106 108 115 133 134 153 160 218 90 89 85 84 86 87 98 107
92 94 97 102 85 75 63 61 79 102 117 126 125 126 117 117 115 102 79 96 98 103 108 104 105 107 107 103 100 119 130 133 238 234 172 100 96 94 91 88 90 99 116
96 99 97 102 91 84 69 75 83 84 100 118 124 117 121 111 92 98 78 97 107 112 112 108 110 105 102 101 89 345 332 320 317 109 93 87 91 102 95 88 84 92 99
108 109 101 99 94 92 86 82 86 91 97 110 108 109 117 107 110 89 94 99 109 116 105 106 106 106 91 98 94 309 302 314 303 128 112 105 109 104 97 93 91 90 103
110 109 108 107 105 104 103 99 95 94 100 102 112 115 118 102 95 90 96 100 111 109 108 105 102 99 104 110 120 278 297 310 119 86 97 106 120 113 105 100 98 100 107
119 119 121 119 110 108 112 110 109 108 107 108 107 107 110 116 104 105 98 103 110 111 110 109 110 120 118 101 126 265 294 304 306 124 118 123 132 123 120 114 111 105 116
120 131 124 143 129 126 116 124 124 121 122 118 120 118 99 108 116 123 114 117 116 117 118 120 136 148 174 208 231 240 297 297 287 89 111 133 139 133 128 133 122 116 115
115 126 137 120 114 115 127 131 130 128 133 132 130 127 136 152 142 138 132 138 135 132 135 150 188 218 229 248 245 232 233 7 0 250 123 150 144 145 145 141 145 143 134
146 144 144 143 137 155 131 162 125 97 160 152 139 147 201 173 161 153 153 156 152 148 168 185 220 234 236 243 229 226 234 194 213 134 153 157 154 156 158 157 157 157 158
137 127 126 110 145 163 150 163 148 166 186 175 156 173 193 147 141 164 155 169 170 172 196 197 227 237 239 212 223 229 220 186 164 189 161 154 173 171 166 169 169 169 165
132 142 128 149 105 129 163 158 189 166 167 146 106 104 100 180 185 211 154 196 209 176 197 209 220 212 24 300 276 305 310 190 75 118 132 156 204 203 175 176 179 177 175
147 137 143 130 89 93 71 37 134 128 109 117 134 211 153 235 243 233 157 202 175 182 217 260 254 230 179 239 286 316 303 317 214 166 176 200 187 202 191 180 182 182 181
146 126 122 125 138 121 120 131 107 188 119 119 148 136 158 266 272 151 111 253 186 189 211 275 270 218 211 241 213 246 289 292 314 259 196 209 195 194 199 187 191 185 184
133 127 138 144 167 133 132 124 209 230 95 137 166 137 193 246 282 83 296 245 250 179 188 257 295 316 298 312 297 289 273 273 303 253 284 184 179 189 205 213 204 195 187
113 122 156 155 160 168 147 205 315 118 144 170 159 152 193 239 215 258 247 259 261 275 213 231 221 273 246 257 258 262 249 254 233 251 262 290 170 177 209 214 238 213 190
125 148 142 148 163 147 160 162 153 202 147 157 200 184 200 221 196 227 234 250 220 271 299 267 238 207 234 241 233 242 221 242 251 235 151 233 199 180 186 178 211 219 201
140 146 132 169 142 143 170 158 166 203 216 187 220 230 191 238 197 193 242 138 247 135 252 270 268 251 272 297 294 305 285 236 237 212 195 207 200 222 167 183 202 209 202
151 155 154 158 135 157 171 167 181 201 200 209 208 220 221 224 216 222 254 299 256 225 235 273 328 272 312 341 308 279 259 259 247 227 192 180 189 193 123 141 167 163 182
167 159 166 162 156 195 194 166 75 238 207 212 195 203 187 220 208 205 249 248 142 3 9 296 305 286 261 239 223 264 301 353 27 275 97 227 130 151 160 155 158 164 191
167 167 165 178 163 202 203 149 107 191 227 131 130 168 188 239 243 219 184 263 351 332 294 233 262 231 248 288 229 229 304 308 312 67 279 83 139 207 152 157 179 170 179
170 174 162 171 167 192 224 188 166 202 201 252 180 175 168 184 228 250 203 207 239 254 275 266 259 347 296 281 296 254 260 301 320 346 347 55 86 349 317 193 185 182 175
172 169 161 166 177 206 197 235 169 240 181 206 138 126 123 164 192 241 211 228 172 237 281 212 264 243 271 262 341 32 267 294 313 290 302 10 341 270 268 218 207 190 168
167 164 162 164 176 201 190 212 236 202 217 171 308 142 251 219 196 214 226 145 241 227 269 308 21 330 290 308 339 279 25 329 299 307 294 237 272 253 252 160 272 126 175